#timestamp,LO_Frequency,Hit,StdDev 
1502485215.1,286047001.0,N,1.0
1502485235.9,286046999.0,N,1.0
1502485255.7,286046999.5,N,1.0
1502485275.6,286046996.6,Y,0.0
1502485295.4,286046999.1,P,0.4
1502485315.2,286046999.1,N,0.4
1502485335.1,286046999.4,N,0.4
1502485336.0,286046999.4,N,0.3
1502485355.8,286046998.6,Y,0.0
1502485375.7,286046999.4,P,0.0
1502485395.5,286046998.1,P,0.6
1502485415.3,286046998.6,N,0.6
1502485435.2,286046998.7,N,0.5
1502485455.0,286046999.5,N,0.5
1502485455.9,286046999.5,N,0.5
1502485475.8,286046999.3,N,0.5
1502485495.6,286046999.5,N,0.5
1502485515.4,286046999.2,N,0.5
1502485535.3,286046998.9,N,0.4
1502485555.1,286046996.6,Y,0.0
1502485575.9,286046998.4,P,0.3
1502485595.7,286047001.2,P,1.2
1502485615.5,286047001.0,N,1.2
1502485635.4,286046998.5,N,1.2
1502485655.2,286046998.2,N,1.2
1502485675.1,286046998.3,N,1.2
1502485676.0,286046998.3,N,1.2
1502485695.8,286046998.9,N,1.1
1502485715.6,286046998.5,N,1.1
1502485735.5,286046998.7,N,1.0
1502485755.3,286046998.2,N,1.0
1502485775.1,286046998.1,N,1.0
1502485795.9,286046998.3,N,1.0
1502485815.7,286047001.1,N,1.1
1502485835.6,286046998.4,N,1.1
1502485855.4,286046998.3,N,1.0
1502485875.2,286046999.0,N,1.0
1502485895.1,286046998.3,N,1.0
1502485896.0,286046998.3,N,1.0
1502485915.8,286046999.0,N,1.0
1502485935.7,286046998.8,N,0.9
1502485955.5,286046998.7,N,0.9
1502485975.3,286046998.6,N,0.9
1502485995.2,286047000.8,N,1.0
1502486015.0,286047000.8,N,1.0
1502486015.9,286047000.8,N,1.0
1502486035.8,286047000.3,N,1.1
1502486055.6,286047000.5,N,1.1
1502486075.4,286047001.2,N,1.1
1502486095.3,286047000.3,N,1.1
1502486115.1,286047000.6,N,1.1
1502486135.9,286047000.8,N,1.1
1502486155.7,286047000.7,N,1.1
1502486175.5,286047001.2,N,1.1
1502486195.4,286047000.3,N,1.1
1502486215.2,286047000.7,N,1.1
1502486235.1,286682703.7,Y,0.0
1502486236.0,286046998.2,P,0.7
1502486255.8,286047002.3,P,1.7
1502486275.6,286047011.9,P,5.4
1502486295.5,286046999.9,N,4.9
1502486315.3,286047002.0,N,4.5
1502486335.1,286047003.2,N,4.2
1502486355.9,286047002.5,N,3.9
1502486375.7,286047002.6,N,3.7
1502486395.6,286047002.7,N,3.5
1502486415.4,286047002.3,N,3.3
1502486435.2,286047002.6,N,3.2
1502486455.1,286047002.4,N,3.1
1502486456.0,286047002.4,N,3.0
1502486475.8,286047002.7,N,2.9
1502486495.7,286047002.8,N,2.8
1502486515.5,286047002.5,N,2.7
1502486535.3,286047000.1,N,2.7
1502486555.2,286047002.7,N,2.6
1502486575.0,286047002.2,N,2.5
1502486575.9,286047002.2,N,2.5
1502486595.8,286047002.7,N,2.4
1502486615.6,286047002.5,N,2.4
1502486635.4,286047001.9,N,2.3
1502486655.3,286047002.6,N,2.3
1502486675.1,286047004.0,N,2.3
1502486695.9,286047002.0,N,2.2
1502486715.7,286047003.8,N,2.2
1502486735.5,286047003.5,N,2.2
1502486755.4,286047003.9,N,2.1
1502486775.2,286047001.6,N,2.1
1502486795.1,286047001.3,N,1.9
1502486796.0,286047001.3,N,1.9
1502486815.8,286047001.6,N,0.9
1502486835.6,286047001.9,N,0.8
1502486855.5,286047002.5,Y,0.0
1502486875.3,286047000.8,P,0.8
1502486895.2,286047000.6,N,0.8
1502486915.9,286047000.1,N,0.9
1502486935.7,286047002.3,N,0.9
1502486955.6,286047002.4,N,1.0
1502486975.4,286046999.7,N,1.1
1502486995.2,286047002.8,N,1.1
1502487015.1,286047000.1,N,1.1
1502487016.0,286047000.1,N,1.1
1502487035.8,286046999.7,N,1.2
1502487055.7,286046999.7,N,1.2
1502487075.5,286047001.7,N,1.1
1502487095.3,286047004.3,Y,0.0
1502487115.2,286047000.4,P,0.3
1502487135.0,286047000.5,N,0.2
1502487135.9,286047000.5,N,0.2
1502487155.8,286046999.8,N,0.4
1502487175.6,286047000.3,N,0.3
1502487195.4,286047001.0,N,0.4
1502487215.3,286047000.2,N,0.4
1502487235.1,286047002.3,Y,0.0
1502487255.9,286046999.9,P,0.3
1502487275.7,286047000.0,N,0.2
1502487295.5,286047000.5,N,0.3
1502487315.4,286046999.9,N,0.3
1502487335.2,286046999.7,N,0.3
1502487355.1,286047000.0,N,0.3
1502487356.0,286047000.0,N,0.3
1502487375.8,286047000.4,N,0.3
1502487395.6,286047000.3,N,0.3
1502487415.5,286047000.3,N,0.3
1502487435.3,286047000.7,N,0.3
1502487455.2,286047000.7,N,0.3
1502487475.9,286047000.5,N,0.3
1502487495.7,286046998.1,Y,0.0
1502487515.6,286047001.1,P,0.4
1502487535.4,286047000.0,N,0.5
1502487555.3,286047000.9,N,0.5
1502487575.1,286047002.8,Y,0.0
1502487576.0,286047002.8,P,1.1
1502487595.8,286047000.8,N,1.0
1502487615.7,286047000.3,N,1.0
1502487635.5,286047000.9,N,0.9
1502487655.4,286046998.2,N,1.3
1502487675.2,286047001.2,N,1.3
1502487695.0,286047001.2,N,1.2
1502487695.9,286047001.2,N,1.1
1502487715.8,286682706.4,Y,0.0
1502487735.6,286047001.2,P,0.2
1502487755.5,286047000.0,N,0.5
1502487775.3,286046999.1,N,0.8
1502487795.1,286047001.2,N,0.8
1502487815.9,286047001.1,N,0.8
1502487835.7,286047000.6,N,0.7
1502487855.6,286047000.6,N,0.7
1502487875.4,286046999.9,N,0.7
1502487895.2,286047001.0,N,0.7
1502487915.1,286047011.9,Y,0.0
1502487916.0,286046999.9,P,0.3
1502487935.8,286046998.6,P,0.8
1502487955.7,286046998.6,N,0.8
1502487975.5,286047001.1,N,1.0
1502487995.4,286046998.2,N,1.1
1502488015.2,286047000.8,N,1.1
1502488035.0,286047000.8,N,1.1
1502488035.9,286047000.8,N,1.1
1502488055.8,286047001.1,N,1.1
1502488075.6,286047000.7,N,1.1
1502488095.4,286047000.4,N,1.0
1502488115.3,286046998.6,N,1.1
1502488135.1,286046998.1,N,1.1
1502488155.9,286046998.4,N,1.2
1502488175.7,286046998.9,N,1.1
1502488195.5,286047001.1,N,1.1
1502488215.4,286047001.2,N,1.2
1502488235.2,286047000.8,N,1.1
1502488255.1,286047000.9,N,1.1
1502488256.0,286047000.9,N,1.1
1502488275.8,286047001.2,N,1.1
1502488295.6,286046998.5,N,1.1
1502488315.5,286047000.4,N,1.1
1502488335.3,286047002.6,N,1.2
1502488355.2,286047000.8,N,1.2
1502488375.9,286047000.4,N,1.2
1502488395.7,286047000.6,N,1.2
1502488415.6,286047001.2,N,1.2
1502488435.4,286047000.8,N,1.1
1502488455.3,286047001.2,N,1.2
1502488475.1,286047000.3,N,1.1
1502488476.0,286047000.3,N,1.1
1502488495.8,286047000.2,N,1.1
1502488515.7,286047002.7,N,1.1
1502488535.5,286047000.8,N,1.1
1502488555.3,286047000.5,N,1.1
1502488575.2,286047000.3,N,1.1
1502488595.0,286047000.6,N,1.1
1502488595.9,286047000.6,N,1.0
1502488615.8,286047000.1,N,1.0
1502488635.6,286047002.2,N,1.1
1502488655.4,286047001.5,N,1.0
1502488675.3,286047001.6,N,1.0
1502488695.1,286047001.9,N,0.9
1502488715.9,286047002.0,N,0.8
1502488735.7,286047002.6,Y,0.0
1502488755.5,286047000.2,P,0.4
1502488775.4,286047000.6,N,0.3
1502488795.2,286047000.1,N,0.3
